Regional Weather Roundup
Issued by NWS Lake Charles, LA

Home | Current Version | Previous Version | Text Only | Print | Product List | Glossary On
Versions: 1 2 3 4 5 6 7 8 9 10 11 12 13 14 15 16 17 18 19 20 21 22 23 24 25 26 27 28 29 30 31 32 33 34 35 36 37 38 39 40 41 42 43 44 45 46 47 48 49 50
000
ASUS44 KLCH 300410
RWRLCH
RWRLCH
REGIONAL WEATHER ROUNDUP
NATIONAL WEATHER SERVICE LAKE CHARLES LA
1100 PM CDT FRI MAY 29 2015

Note: "fair" indicates few or no clouds below 12,000 feet with no
significant weather and/or obstructions to visibility.


ACROSS SOUTHEAST TEXAS

CITY           SKY/WX    TMP DP  RH WIND       PRES   REMARKS
BEAUMONT       CLEAR     76  73  91 S3        30.00R
BEAUMONT CITY    N/A     74  73  94 CALM      30.01S
ORANGE         CLEAR     77  73  87 S5        30.03R
JASPER         CLEAR     77  73  88 S3        30.03S
$$

ACROSS CENTRAL LOUISIANA

CITY           SKY/WX    TMP DP  RH WIND       PRES   REMARKS
LEESVILLE      CLEAR     75  72  88 S7        30.01R
FULLERTON        N/A     78  71  79 VRB3      30.00R
ALEXANDRIA INT PTCLDY    75  73  93 SE5       30.01R
ESLER FIELD    MOCLDY    74  70  87 CALM      30.04R
DERIDDER       MOCLDY    76  74  93 SE5       30.04R
OAKDALE        PTCLDY    73  72  96 CALM      30.03S FOG
OPELOUSAS        N/A     76  72  86 CALM      30.04S
$$

ACROSS SOUTHWEST AND SOUTH CENTRAL LOUISIANA

CITY           SKY/WX    TMP DP  RH WIND       PRES   REMARKS
SULPHUR        PTCLDY    78  75  91 SE6       30.02S
LAKE CHARLES   PTCLDY    77  73  87 S6        30.01R
CHENNAULT INT  PTCLDY    75  73  93 SE7       30.02S
CAMERON PHI    PTCLDY    81  73  78 S13       30.05R
DEQUINCY         N/A     75  75 100 CALM      30.02R
JENNINGS         N/A     77  73  88 S3        30.03S
LAFAYETTE      PTCLDY    78  73  84 VRB3      30.04S
NEW IBERIA     MOCLDY    76  73  91 SE6       30.05R
ABBEVILLE        N/A     75  73  91 SE5       30.04S
PATTERSON      PTCLDY    73  70  88 CALM      30.06S
SALT POINT       N/A     78  72  81 VRB3      30.03R
$$

SELECTED SITES ACROSS THE REGION

CITY           SKY/WX    TMP DP  RH WIND       PRES   REMARKS
HOUSTON BUSH   PTCLDY    77  71  82 S5        29.99R
HOUSTON HOBBY  PTCLDY    76  73  91 S6        29.98S
GALVESTON      PTCLDY    79  76  90 S9        30.00S
COLLEGE STAT   CLEAR     77  70  79 S6        29.98R
CONROE         CLEAR     73  69  87 CALM      29.99R
HUNTSVILLE     CLEAR     77  69  76 S6        29.99R
LUFKIN         CLEAR     77  70  79 SE6       29.99R
SHREVEPORT     MOCLDY    77  71  82 S7        29.97R
MONROE         TSTM      69  67  93 VRB7      30.03F
NATCHEZ MS     MOCLDY    73  70  88 S5        30.07S
BATON ROUGE    MOCLDY    74  71  91 NE3       30.06R
N.O. INTL ARPT PTCLDY    77  69  76 SE7       30.05R
SLIDELL        CLEAR     76  73  91 SE3       30.05S
$$

MARINE REPORTS

STATION/POSITION TIME  TEMP    WIND        PRES    VSBY  WAVE
                       AIR SEA DIR/SP/G                  HT/PER
                 (UTC) (F)     (DEG/KT/KT) (MB)    (MI)  (FT/S)
BUOY 30 S HIGH I 0350   80 81  160/ 10/ 14 1015.3R         3/ 5
SEA RIM ST PARK  0400   80     190/ 12/ 15 1016.5R
PORT ARTHUR      0300      78  180/  5/  8 1016.1R
SABINE PASS N    0300   79 78  180/  7/ 10 1016.2R
TEXAS POINT      NOT AVBL
CALCASIEU PASS   0300   80 82  200/ 14/ 17   N/A
LK CHARLES BEACH 0300   79 77              1016.5R
MARSH ISLAND     0300   83     170/ 12/ 15   N/A           0
FRESH WATER LOCK 0300   80 84  150/  7/ 12   N/A
AMERADA PASS     0300   78 78  140/  5/  7 1016.8R
$$



USA.gov is the U.S. government's official web portal to all federal, state and local government web resources and services.